Location: Esterri de Aneo
(42.6284°N, 1.1223°E)
Time: 14:44:58
(UTC+00:00)

Cosmos 967 Rocket - Pass Details

Date: 11 December 2025
Orbit: 941 x 995 km, 65.8° (Epoch: 16 January)

Event Time Altitude Azimuth Distance (km) Brightness Sun altitude
Rises 18:53:57 0° 212° (SSW) 3,630 8.0 -27.0°
Reaches altitude 10° 18:56:28 10° 213° (SSW) 2,695 7.3 -27.5°
Maximum altitude 19:02:48 84° 301° (WNW) 985 4.4 -28.7°
Enters shadow 19:03:37 70° 16° (NNE) 1,039 4.4 -28.8°
